Location: Unspecified
(0.0000°N, 0.0000°E)
Time: 06:55:44
(UTC+00:00)

Tiros 1 despin weight - Pass Details

Date: 16 December 2018
Orbit: 595 x 642 km, 48.2° (Epoch: 17 June)

Event Time Altitude Azimuth Distance (km) Brightness Sun altitude
Rises 20:41:04 0° 228° (SW) 2,825 ? -37.3°
Reaches altitude 10° 20:43:24 10° 233° (SW) 1,920 ? -37.8°
Enters shadow 20:43:52 13° 235° (SW) 1,744 ? -37.9°
